Location: Four Corners
(38.2757°N, 122.4608°W)
Time: 08:21:06
(UTC+00:00)

OAO 3 Rocket - Pass Details

Date: 08 December 2019
Orbit: 630 x 682 km, 35.0° (Epoch: 24 January)

Event Time Altitude Azimuth Distance (km) Brightness Sun altitude
Rises 01:49:54 0° 242° (WSW) 2,919 8.5 -11.7°
Reaches altitude 10° 01:52:19 10° 236° (SW) 2,020 7.1 -12.1°
Maximum altitude 01:56:45 43° 165° (SSE) 909 3.9 -12.9°
Enters shadow 02:00:07 17° 100° (E) 1,647 4.7 -13.6°
